Regional Weather Roundup
Issued by NWS

Home | Current Version | Previous Version | Graphics & Text | Print | Product List | Glossary On
Versions: 1 2 3 4 5 6 7 8 9 10 11 12 13 14 15 16 17 18 19 20 21 22 23 24 25 26 27 28 29 30 31 32 33 34 35 36 37 38 39 40 41 42 43 44 45 46 47 48 49 50
000
ASUS44 KMEG 061500
RWRTN
TENNESSEE HOURLY STATE WEATHER ROUNDUP
NATIONAL WEATHER SERVICE MEMPHIS TN
1000 AM CDT WED MAY 06 2015

TNZ002-004-019-021-049-052-054-088>092-061600-
WEST TENNESSEE

CITY           SKY/WX    TMP DP  RH WIND       PRES   REMARKS
MEMPHIS INTL   MOSUNNY   78  58  49 SE7       30.17S
NWS MEMPHIS      N/A     78 N/A N/A MISG        N/A
JACKSON        SUNNY     77  56  48 S9        30.19S
DYERSBURG      SUNNY     77  52  41 S3        30.18F
PARIS          SUNNY     75  57  53 S6        30.20S
LEXINGTON      SUNNY     75  57  53 VRB3      30.20S
$$

TNZ008-025-027-028-033-062-065-066-061600-
NORTH MIDDLE TENNESSEE

CITY           SKY/WX    TMP DP  RH WIND       PRES   REMARKS
NASHVILLE      MOSUNNY   78  56  46 VRB6      30.22S
CLARKSVILLE    MOSUNNY   75  57  53 S7        30.20F
CROSSVILLE     SUNNY     74  50  42 W6        30.26F
$$

TNZ061-075-076-078-094-096-097-061600-
SOUTH MIDDLE TENNESSEE

CITY           SKY/WX    TMP DP  RH WIND       PRES   REMARKS
FAYETTEVILLE     N/A     73  54  49 VRB5      30.23S
TULLAHOMA      SUNNY     75  52  43 CALM      30.24S
WINCHESTER     SUNNY     77  54  44 VRB3      30.23S
SHELBYVILLE    PTSUNNY   79  59  50 VRB3      30.23F
$$

TNZ017-018-042-046-047-061600-
NORTHEAST TENNESSEE

CITY           SKY/WX    TMP DP  RH WIND       PRES   REMARKS
TRI CITIES     SUNNY     73  56  54 CALM      30.26F
$$

TNZ012-013-036-069-073-074-061600-
CENTRAL EAST TENNESSEE

CITY           SKY/WX    TMP DP  RH WIND       PRES   REMARKS
KNOXVILLE      MOSUNNY   76  55  48 W6        30.23S
OAK RIDGE      SUNNY     77  56  48 CALM      30.24F
GATLINBURG     SUNNY     73  57  56 VRB5      30.23F
$$

TNZ083-085-099-061600-
SOUTHEAST TENNESSEE

CITY           SKY/WX    TMP DP  RH WIND       PRES   REMARKS
CHATTANOOGA    MOSUNNY   74  54  49 SW3       30.23F
$$

SKY/WX REPORTED AS FAIR MEANS FEW OR NO CLOUDS BELOW
12 THOUSAND FEET.



USA.gov is the U.S. government's official web portal to all federal, state and local government web resources and services.